Weather Roundup
Issued by NWS

Home | Current Version | Previous Version | Text Only | Print | Product List | Glossary On
Versions: 1 2 3 4 5 6 7 8 9 10 11 12 13 14 15 16 17 18 19 20 21 22 23 24 25 26 27 28 29 30 31 32 33 34 35 36 37 38 39 40 41 42 43 44 45 46 47 48 49 50
000
NZUS93 KARX 011910
HRRWXR

CURRENT HOURLY OBSERVATIONS ACROSS
MUCH OF THE UPPER MISSISSIPPI VALLEY
NATIONAL WEATHER SERVICE LA CROSSE WI
200 PM CDT SAT AUG 01 2015


...SOUTHEAST MINNESOTA...


CITY           SKY/WX    TMP DP  RH WIND       PRES   REMARKS
ROCHESTER      SUNNY     81  69  67 NW6       29.97F
ROCHESTER/MAYO FAIR      80  62  53 W7        29.96F
WINONA         MOSUNNY   81  61  50 W7        29.94F
AUSTIN         SUNNY     82  64  54 NW5       29.97S
ALBERT LEA     SUNNY     82  64  54 W5        29.97S
DODGE CENTER   SUNNY     79  63  57 W6        29.97F
PRESTON        SUNNY     80  64  57 NW9       29.98S
OWATONNA       SUNNY     81  63  54 CALM      29.96S
FARIBAULT      SUNNY     81  64  57 W3        29.96S
$$

...ELSEWHERE IN MINNESOTA...


CITY           SKY/WX    TMP DP  RH WIND       PRES   REMARKS
MINNEAPOLIS    MOSUNNY   84  56  38 NW8       29.92F
INTNL FALLS    SUNNY     77  51  40 W10       29.82F
DULUTH         MOSUNNY   79  50  36 NW16      29.89F
RED WING       SUNNY     84  55  37 W6        29.92F
REDWOOD FALLS  MOSUNNY   82  67  60 VRB6      29.93F
MANKATO        MOSUNNY   81  64  57 SE5       29.95S
WORTHINGTON    CLOUDY    82  66  57 SW14      29.97F
FAIRMONT       MOSUNNY   84  64  51 W10       29.97S
$$

...SOUTHWEST WISCONSIN...


CITY           SKY/WX    TMP DP  RH WIND       PRES   REMARKS
LA CROSSE      MOSUNNY   83  63  50 N6        29.93F
PRAIRIE DU CHI MOSUNNY   86  57  36 W10       29.92F
BOSCOBEL       MOSUNNY   89  65  44 NW8       29.93F HX  91
LONE ROCK      SUNNY     85  63  47 W10       29.93F
PLATTEVILLE    MOSUNNY   85  65  52 W14       29.95F
FORT MC COY    SUNNY     82  54  37 W7        29.95S
CAMP DOUGLAS   MOSUNNY   82  59  44 W6        29.93F
VIROQUA        FAIR      79  63  58 W5        29.96F
WIS DELLS      MOSUNNY   83  53  35 W10       29.94F
$$

...ELSEWHERE IN WISCONSIN...


CITY           SKY/WX    TMP DP  RH WIND       PRES   REMARKS
MILWAUKEE      PTSUNNY   81  52  36 W10       29.94F
MADISON        MOSUNNY   82  61  48 W5        29.93F
GREEN BAY      MOSUNNY   81  53  37 NW13G21   29.90F
EAU CLAIRE     SUNNY     81  53  37 W9        29.93F
BLACK RVR FLS  FAIR      82  53  36 W9        29.93F
MEDFORD        MOSUNNY   77  52  42 W9G16     29.94F
WAUSAU         MOSUNNY   81  47  30 NW12G18   29.91F
WIS RAPIDS     MOSUNNY   82  49  31 W8G17     29.95F
MARSHFIELD     MOSUNNY   80  49  33 NW9G20    29.95F
RICE LAKE      SUNNY     78  52  40 W8        29.94F
$$

...NORTHEAST IOWA...


CITY           SKY/WX    TMP DP  RH WIND       PRES   REMARKS
DECORAH        SUNNY     82  63  51 NW10      29.95F
MASON CITY     MOSUNNY   85  69  58 W8        29.99F
CHARLES CITY   MOSUNNY   82  70  65 NW8       29.98S
OELWEIN        MOSUNNY   82  70  65 NW9G17    29.98S
$$

...ELSEWHERE IN IOWA...


CITY           SKY/WX    TMP DP  RH WIND       PRES   REMARKS
DES MOINES     PTSUNNY   86  71  60 W9        29.98F HX  91
IOWA CITY      MOSUNNY   85  64  49 W10G20    29.99F
FORT DODGE     CLOUDY    84  70  61 W9        30.00S
$$

...NORTHERN ILLINOIS...


CITY           SKY/WX    TMP DP  RH WIND       PRES   REMARKS
CHICAGO-OHARE  MOSUNNY   86  56  35 W16G23    29.94F
CHICAGO-MIDWAY MOSUNNY   88  54  31 W13       29.95F
MOLINE         MOSUNNY   86  60  41 SW14G21   29.97F
ROCKFORD       MOSUNNY   85  58  39 W12       29.96F
PEORIA         PTSUNNY   85  56  37 SW9       30.00F
$$

NOTE: "FAIR" INDICATES FEW OR NO CLOUDS BELOW 12,000 FEET WITH NO
SIGNIFICANT WEATHER AND/OR OBSTRUCTIONS TO VISIBILITY. WIND
SPEEDS ARE IN MILES-PER-HOUR.



USA.gov is the U.S. government's official web portal to all federal, state and local government web resources and services.